EHI
0 0 0 0 0 0 0 0 0 0 0 0 0 0 0 0 0 0 0 0 0 0 0 0 0 0 0 0 0 0 0 0 0 0 0 0 0 0 0 0 0 0 0
0 0 0 0 0 0 0 0 0 0 0 0 0 0 0 0 0 0 0 0 0 0 0 0 0 0 0 0 0 0 0 0 0 0 0 0 0 0 0 0 0 0 0
0 0 0 0 0 0 0 0 0 0 0 0 0 0 0 0 0 0 0 0 0 0 0 0 0 0 0 0 0 0 0 0 0 0 0 0 0 0 0 0 0 0 0
0 0 0 0 0 0 0 0 0 0 0 0 0 0 0 0 0 0 0 0 0 0 0 0 0 0 0 0 0 0 0 0 0 0 0 0 0 0 0 0 0 0 0
0 0 0 0 0 0 0 0 0 0 0 0 0 0 0 0 0 0 0 0 0 0 0 0 0 0 0 0 0 0 0 0 0 0 0 0 0 0 0 0 0 0 0
0 0 0 0 0 0 0 0 0 0 0 0 0 0 0 0 0 0 0 0 0 0 0 0 0 0 0 0 0 0 0 0 0 0 0 0 0 0 0 0 0 0 0
0 0 0 0 0 0 0 0 0 0 0 0 0 0 0 0 0 0 0 0 0 0 0 0 0 0 0 0 0 0 0 0 0 0 0 0 0 0 0 0 0 0 0
0 0 0 0 0 0 0 0 0 0 0 0 0 0 0 0 0 0 0 0 0 0 0 0 0 0 0 0 0 0 0 0 0 0 0 0 0 0 0 0 0 0 0
0 0 0 0 0 0 0 0 0 0 0 0 0 0 0 0 0 0 0 0 0 0 0 0 0 0 0 0 0 0 0 0 0 0 0 0 0 0 0 0 0 0 0
0 0 0 0 0 0 0 0 0 0 0 0 0 0 0 0 0 0 0 0 0 0 0 0 0 0 0 0 0 0 0 0 0 0 0 0 0 0 0 0 0 0 0
0 0 0 0 0 0 0 0 0 0 0 0 0 0 0 0 0 0 0 0 0 0 0 0 0 0 0 0 0 0 0 0 0 0 0 0 0 0 0 0 0 0 0
0 0 0 0 0 0 0 0 0 0 0 0 0 0 0 0 0 0 0 0 0 0 0 0 0 0 0 0 0 0 0 0 0 0 0 0 0 0 0 0 0 0 0
0 0 0 0 0 0 0 0 0 0 0 0 0 0 0 0 0 0 0 0 0 0 0 0 0 0 0 0 0 0 0 0 0 0 0 0 0 0 0 0 0 0 0
0 0 0 0 0 0 0 0 0 0 0 0 0 0 0 0 0 0 0 0 0 0 0 0 0 0 0 0 0 0 0 0 0 0 0 0 0 0 0 0 0 0 0
0 0 0 0 0 0 0 0 0 0 0 0 0 0 0 0 0 0 0 0 0 0 0 0 0 0 0 0 0 0 0 0 0 0 0 0 0 0 0 0 0 0 0
0 0 0 0 0 0 0 0 0 0 0 0 0 0 0 0 0 0 0 0 0 0 0 0 0 0 0 0 0 0 0 0 0 0 0 0 0 0 0 0 0 0 0
0 0 0 0 0 0 0 0 0 0 0 0 0 0 0 0 0 0 0 0 0 0 0 0 0 0 0 0 0 0 0 0 0 0 0 0 0 0 0 0 0 0 0
0 0 0 0 0 0 0 0 0 0 0 0 0 0 0 0 0 0 0 0 0 0 0 0 0 0 0 0 0 0 0 0 0 0 0 0 0 0 0 0 0 0 0
0 0 0 0 0 0 0 0 0 0 0 0 0 0 0 0 0 0 0 0 0 0 0 0 0 0 0 0 0 0 0 0 0 0 0 0 0 0 0 0 0 0 0
0 0 0 0 0 0 0 0 0 0 0 0 0 0 0 0 0 0 0 0 0 0 0 0 0 0 0 0 0 0 0 0 0 0 0 0 0 0 0 0 0 0 0
0 0 0 0 0 0 0 0 0 0 0 0 0 0 0 0 0 0 0 0 0 0 0 0 0 0 0 0 0 0 0 0 0 0 0 0 0 0 0 0 0 0 0
0 0 0 0 0 0 0 0 0 0 0 0 0 0 0 0 0 0 0 0 0 0 0 0 0 0 0 0 0 0 0 0 0 0 0 0 0 0 0 0 0 0 0
0 0 0 0 0 0 0 0 0 0 0 0 0 0 0 0 0 0 0 0 0 0 0 0 0 0 0 0 0 0 0 0 0 0 0 0 0 0 0 0 0 0 0
0 0 0 0 0 0 0 0 0 0 0 0 0 0 0 0 0 0 0 0 0 0 0 0 0 0 0 0 0 0 0 0 0 0 0 0 0 0 0 0 0 0 0
0 0 0 0 0 0 0 0 0 0 0 0 0 0 0 0 0 0 0 0 0 0 0 0 0 0 0 0 0 0 0 0 0 0 0 0 0 0 0 0 0 0 0
0 0 0 0 0 0 0 0 0 0 0 0 0 0 0 0 0 0 0 0 0 0 0 0 0 0 0 0 0 0 0 0 0 0 0 0 0 0 0 0 0 0 0
Wind_Speed
11 13 20 18 16 14 13 12 11 11 11 11 11 12 12 12 13 14 14 15 15 16 17 17 18 18 19 20 20 20 20 20 19 19 20 22 22 22 22 22 20 14 23
14 15 21 19 17 15 14 13 12 11 11 11 11 11 11 12 12 13 13 14 14 15 16 16 17 17 18 18 19 19 19 18 18 19 19 17 20 22 22 22 21 15 22
16 16 18 20 18 16 15 13 12 12 11 11 11 11 11 11 11 12 12 13 13 14 14 15 15 16 17 17 17 17 17 17 17 18 16 9 11 20 21 21 21 21 21
17 16 15 21 19 18 16 15 13 12 12 11 11 10 10 10 11 11 11 12 12 12 13 13 14 15 15 16 16 16 16 15 16 16 8 8 9 18 20 20 20 20 20
15 15 17 22 20 19 17 16 14 13 12 12 11 10 10 10 10 10 10 10 10 11 11 12 13 13 14 14 15 15 15 14 15 11 6 7 7 16 19 19 19 19 19
14 14 17 23 21 20 18 17 15 14 13 12 11 11 10 10 9 9 9 9 9 9 10 10 11 12 12 13 14 14 13 13 10 5 5 6 7 15 18 18 19 19 19
13 14 17 22 22 20 19 18 16 15 14 13 12 11 10 10 9 9 8 8 7 8 8 9 9 10 11 12 12 13 12 11 6 5 5 5 8 17 18 18 18 19 19
12 14 16 22 22 20 19 18 17 16 15 14 12 11 11 10 9 8 8 7 6 6 6 7 8 8 9 10 11 11 11 10 8 6 5 5 13 16 17 17 18 18 18
11 13 13 12 16 20 20 19 18 17 16 15 13 12 11 10 9 8 7 6 6 5 5 5 5 6 7 8 9 9 9 9 6 4 6 4 13 15 16 16 17 17 18
10 11 13 11 10 10 12 18 19 18 17 16 14 13 12 10 9 9 7 7 6 4 3 3 3 3 4 5 7 7 7 7 4 4 3 6 14 15 15 16 16 17 17
11 10 12 13 12 10 10 15 16 17 17 16 13 14 11 5 5 5 7 8 6 5 3 2 0 1 3 2 2 5 5 2 3 2 1 9 13 14 14 15 15 16 16
15 13 11 13 13 12 11 10 7 8 8 8 6 7 5 5 6 7 10 9 8 6 5 4 4 5 4 1 2 2 1 3 2 2 3 9 11 13 13 14 14 15 15
14 13 12 11 13 13 9 9 6 6 6 7 9 9 6 5 4 4 4 5 4 6 4 5 5 4 2 1 1 1 1 1 1 1 3 8 10 12 13 13 14 14 15
13 15 13 12 10 11 9 8 8 7 7 7 8 11 8 4 5 5 4 5 5 4 5 4 4 5 3 3 3 2 1 1 1 0 2 8 9 11 12 13 13 14 14
16 16 14 13 12 10 9 7 8 7 7 8 7 9 9 6 6 5 5 5 6 5 5 4 5 5 4 4 3 3 3 3 2 2 2 8 10 11 12 12 13 14 14
17 17 15 15 13 11 10 8 7 7 7 7 7 8 9 7 6 6 6 5 5 5 5 5 5 4 4 3 4 4 4 4 3 3 3 5 10 12 12 12 13 14 14
15 16 17 15 14 13 12 10 7 7 7 7 8 9 10 8 8 7 6 6 6 5 6 4 5 3 3 4 4 5 4 4 4 4 4 3 4 9 13 13 14 14 15
12 15 17 15 15 14 12 10 7 7 8 7 7 9 11 11 9 8 7 6 7 6 5 5 4 4 4 4 4 4 4 4 5 5 5 4 4 4 8 14 15 15 16
14 14 15 15 15 14 12 9 8 7 8 8 8 8 10 12 11 8 7 7 7 6 6 6 6 5 5 5 5 5 4 4 5 6 6 6 6 5 5 10 16 17 17
13 13 14 14 13 12 10 8 7 8 8 7 8 9 11 11 12 10 7 8 8 6 7 6 6 6 5 4 5 5 4 5 5 6 7 6 6 7 7 7 6 10 17
11 11 13 14 14 12 10 11 11 11 8 7 8 11 12 12 13 12 9 9 9 9 9 9 7 7 6 4 2 3 5 7 9 7 6 6 6 7 7 7 5 5 7
10 10 11 12 14 13 11 9 7 7 6 7 6 9 12 13 14 14 13 10 11 9 11 12 9 6 6 7 5 3 3 4 8 10 7 7 7 6 7 9 7 7 6
8 10 10 11 13 13 11 6 5 5 5 7 9 10 12 14 14 13 15 12 12 12 12 13 12 13 9 8 7 6 6 7 3 3 7 8 7 6 6 6 8 9 9
6 7 9 9 10 11 11 10 11 11 13 13 8 8 10 12 14 15 14 15 13 12 12 13 14 11 9 8 7 7 5 5 4 3 3 6 8 8 8 8 9 9 9
3 5 6 7 8 9 11 11 11 12 11 6 7 9 11 12 14 15 15 15 15 13 13 12 13 13 12 10 8 6 6 5 4 5 5 4 4 6 7 8 7 7 8
1 3 4 6 7 8 10 11 12 13 10 9 10 10 10 9 10 15 14 15 14 13 13 13 12 14 13 13 10 8 7 7 8 8 10 7 5 5 6 6 7 7 7
Wind_Direction
140 150 153 149 146 143 138 130 123 116 111 105 99 93 88 83 79 76 72 69 66 63 62 60 58 57 57 55 52 49 49 49 49 48 42 41 47 48 46 45 44 36 39
141 150 154 152 150 148 143 137 131 125 119 113 107 101 95 89 84 80 76 72 67 64 62 60 58 56 56 56 53 50 49 49 49 49 43 28 35 46 45 42 41 39 38
144 150 156 154 154 152 148 144 139 134 128 122 115 108 102 95 90 84 80 75 71 66 63 60 58 57 56 55 53 50 49 49 50 50 38 13 15 41 42 40 39 38 36
148 150 157 157 156 156 154 151 147 142 137 131 123 117 110 103 96 89 84 79 75 69 65 61 58 55 54 53 51 49 48 50 52 50 32 11 4 35 39 37 35 35 34
149 153 160 160 159 160 159 157 153 149 145 140 133 126 119 111 104 97 90 83 78 72 67 63 58 53 51 50 49 46 46 50 54 46 27 10 355 28 35 34 32 31 30
152 154 159 162 163 164 163 161 158 155 152 148 143 136 130 122 114 105 98 91 83 76 70 64 60 53 49 47 45 43 42 50 57 46 35 12 351 23 30 29 27 26 26
156 151 160 166 167 167 167 166 164 162 159 156 151 147 141 134 127 119 111 101 91 81 72 64 59 52 46 43 41 38 35 41 65 54 46 9 2 22 25 24 22 20 20
156 150 161 171 171 171 172 171 169 168 165 163 161 157 152 146 140 134 126 115 102 88 76 66 57 49 41 38 35 32 31 36 46 39 51 11 12 18 20 19 17 15 15
157 154 160 172 173 175 176 175 174 173 172 170 169 166 162 158 154 148 143 135 123 108 90 72 57 44 35 32 30 26 24 31 51 39 36 6 11 13 14 14 12 10 9
163 161 162 172 173 174 177 180 179 178 177 176 175 172 170 168 164 161 158 156 148 136 120 94 63 35 20 21 24 17 20 27 40 49 36 360 8 7 8 8 6 4 3
175 174 169 174 176 175 176 185 182 182 182 180 177 178 173 165 163 171 177 171 170 167 165 155 153 303 285 285 1 5 18 17 31 49 53 2 2 0 0 0 359 357 356
186 184 179 178 177 176 181 178 174 178 177 171 163 170 171 188 182 178 179 180 186 189 199 207 231 250 262 294 331 357 21 11 19 15 4 355 353 351 351 351 350 348 348
187 185 186 185 178 177 178 171 175 177 172 176 173 171 184 191 167 158 154 179 190 201 212 215 231 234 236 162 258 292 46 7 340 356 341 336 340 340 340 341 340 339 339
189 191 188 187 180 178 174 172 176 178 177 183 183 176 181 181 171 171 173 174 184 193 204 201 214 212 213 216 218 244 260 243 251 260 288 314 322 325 326 328 329 329 329
193 191 191 188 185 179 175 177 180 180 177 178 180 179 177 177 180 178 185 183 188 188 188 203 214 211 208 219 221 224 237 252 253 254 276 296 301 306 309 313 316 318 319
195 192 190 191 187 182 183 182 184 180 174 176 178 183 180 178 182 181 186 189 191 191 189 196 207 207 209 208 222 230 234 243 244 246 240 274 288 293 295 298 303 306 308
195 189 189 191 189 187 188 187 187 184 180 183 182 186 188 187 185 184 187 189 192 190 192 196 212 204 213 213 219 229 229 231 235 244 247 234 254 276 283 286 289 293 297
192 187 187 190 192 191 190 190 190 190 189 189 185 187 193 194 189 187 189 192 187 185 187 189 201 197 212 214 220 228 223 219 228 236 236 232 223 238 264 274 281 284 288
192 185 184 186 190 192 190 189 195 194 197 193 191 191 194 195 194 191 192 192 185 186 188 197 198 196 205 211 216 223 223 223 227 237 232 228 223 219 219 257 270 278 283
185 182 181 183 187 187 187 189 196 207 205 198 196 196 192 195 195 194 195 194 188 188 192 195 199 199 202 201 220 232 227 226 226 229 231 230 222 221 220 228 246 267 274
175 179 180 184 187 187 191 196 200 207 206 204 201 197 196 195 195 197 200 198 195 196 197 194 190 199 203 184 198 263 257 234 231 228 220 218 222 221 218 218 217 223 254
175 182 184 186 188 193 199 200 201 200 206 209 206 204 200 198 198 201 202 201 200 199 199 198 193 191 197 183 172 186 266 269 233 225 212 211 216 214 219 224 220 222 226
182 188 192 191 191 193 191 184 189 195 205 211 211 211 207 202 202 203 204 204 203 202 206 203 196 193 199 197 183 169 189 226 255 233 215 214 212 210 214 218 224 226 229
203 193 193 192 193 191 188 194 197 204 214 215 212 210 209 208 208 207 206 207 208 208 209 207 204 199 190 196 201 206 197 172 179 254 265 225 216 217 217 226 232 228 229
202 192 193 196 199 193 196 201 208 220 226 223 214 214 212 213 214 212 209 209 213 213 212 209 206 204 203 200 193 183 209 218 191 191 241 244 233 223 220 223 227 228 228
178 181 189 202 212 204 203 207 212 222 224 224 223 223 220 217 216 215 213 213 215 215 214 212 210 209 209 208 205 195 180 183 197 199 216 222 230 231 224 224 226 227 229